DW3039 Karjalohja FI current weather conditions

sailwx.info

Wind from 207 at 2 knots gusting 6

Air temperature 14.4° C
Dewpoint 13.5° C

Last reported at 2015-Jul-07 20:43 UTC.
Time now 2015-Jul-07 21:52 UTC

Location: N 60°16' E 023°41'.
View on Google Maps.

See reports from other nearby stations

  
Tides and Currents Weather Stations Pressure Air Temp Water Temp Dewpoint Dewpoint Depression Visibility Wind Speed Wind Dir Waves Ship Positions
date/time (UTC)wind fromknots sea level pressurealtimeterstation pressurevisibilityair tempwater tempwave heightnotes
2015-Jul-07 20:43 207 2 gusting 6 14.4
2015-Jul-07 20:33 200 2 gusting 6 14.4
2015-Jul-07 20:23 217 2 gusting 6 14.4
2015-Jul-07 20:13 213 2 gusting 5 15.0
2015-Jul-07 20:03 204 1 gusting 5 15.0
2015-Jul-07 19:53 214 1 gusting 6 15.0
2015-Jul-07 19:43 220 0 gusting 6 15.0
2015-Jul-07 19:33 209 0 gusting 6 15.0
2015-Jul-07 19:23 212 0 gusting 6 15.0
2015-Jul-07 19:13 219 0 gusting 5 15.0
2015-Jul-07 19:03 179 15.0
2015-Jul-07 18:53 205 2 gusting 6 15.0
2015-Jul-07 18:43 176 15.0
2015-Jul-07 18:33 190 0 gusting 4 15.0
2015-Jul-07 18:23 206 1 gusting 3 15.0
2015-Jul-07 18:13 176 15.0
2015-Jul-07 18:03 226 1 gusting 6 15.0
2015-Jul-07 17:53 306 0 gusting 9 15.0
2015-Jul-07 17:43 217 3 gusting 9 15.6
2015-Jul-07 17:33 225 4 gusting 9 15.6
2015-Jul-07 17:23 210 2 gusting 8 15.6
2015-Jul-07 17:13 207 2 gusting 8 15.6
2015-Jul-07 17:03 226 3 gusting 7 15.6
2015-Jul-07 16:53 224 4 gusting 10 15.6
2015-Jul-07 16:43 211 6 gusting 11 15.6
2015-Jul-07 16:33 224 5 gusting 8 15.6
2015-Jul-07 16:22 216 4 gusting 8 15.6
2015-Jul-07 16:12 225 4 gusting 8 15.6
2015-Jul-07 16:02 209 3 gusting 10 15.6
2015-Jul-07 15:52 217 4 gusting 9 15.6
2015-Jul-07 15:42 215 5 gusting 9 15.6
2015-Jul-07 15:32 206 6 gusting 14 15.6
2015-Jul-07 15:22 220 5 gusting 13 15.6
2015-Jul-07 15:12 214 3 gusting 15 15.6
2015-Jul-07 15:02 213 5 gusting 9 16.1
2015-Jul-07 14:52 202 6 gusting 13 16.1
2015-Jul-07 14:42 203 8 gusting 15 16.1
2015-Jul-07 14:32 217 6 gusting 15 16.1
2015-Jul-07 14:22 206 7 gusting 18 16.1
2015-Jul-07 14:12 224 6 gusting 15 16.1
2015-Jul-07 14:02 217 4 gusting 14 15.6
2015-Jul-07 13:52 193 7 gusting 15 15.6
2015-Jul-07 13:42 211 4 gusting 12 15.6
2015-Jul-07 13:32 214 5 gusting 11 15.6
2015-Jul-07 13:22 210 4 gusting 8 15.6
2015-Jul-07 13:12 213 5 gusting 11 15.6
2015-Jul-07 13:02 224 2 gusting 7 15.6
2015-Jul-07 12:52 199 3 gusting 11 15.6
2015-Jul-07 12:42 216 5 gusting 13 15.6
2015-Jul-07 12:32 205 6 gusting 13 15.6
2015-Jul-07 12:22 228 5 gusting 13 15.0
2015-Jul-07 12:12 212 4 gusting 10 15.0
2015-Jul-07 12:02 216 4 gusting 12 15.0
2015-Jul-07 11:52 221 6 gusting 12 15.0
2015-Jul-07 11:42 203 2 gusting 11 15.0
2015-Jul-07 11:32 202 4 gusting 9 15.0
2015-Jul-07 11:22 216 6 gusting 12 15.0
2015-Jul-07 11:12 203 6 gusting 11 15.0
2015-Jul-07 11:02 191 4 gusting 8 15.0
2015-Jul-07 10:52 212 3 gusting 9 15.0
2015-Jul-07 10:42 212 4 gusting 10 14.4
2015-Jul-07 10:32 205 4 gusting 12 14.4
2015-Jul-07 10:22 207 5 gusting 13 14.4
2015-Jul-07 10:12 207 3 gusting 12 14.4
2015-Jul-07 10:02 210 6 gusting 14 15.0
2015-Jul-07 09:52 212 3 gusting 8 15.0
2015-Jul-07 09:42 209 4 gusting 7 15.0
2015-Jul-07 09:32 210 5 gusting 15 15.0
2015-Jul-07 09:21 206 3 gusting 8 15.0
2015-Jul-07 09:11 204 6 gusting 12 15.6
2015-Jul-07 09:01 207 6 gusting 14 15.6
2015-Jul-07 08:38 202 6 gusting 16 15.6
2015-Jul-07 08:28 205 4 gusting 13 15.6
2015-Jul-07 08:18 194 5 gusting 10 15.6
2015-Jul-07 08:08 209 6 gusting 11 15.6
2015-Jul-07 07:58 220 4 gusting 12 15.6
2015-Jul-07 07:48 210 4 gusting 7 15.6
2015-Jul-07 07:38 215 3 gusting 12 15.0
2015-Jul-07 07:28 204 3 gusting 10 15.6
2015-Jul-07 07:18 211 6 gusting 13 15.6
2015-Jul-07 07:08 199 4 gusting 8 15.6
2015-Jul-07 06:58 181 3 gusting 9 15.6
2015-Jul-07 06:48 208 4 gusting 12 15.6
2015-Jul-07 06:38 206 4 gusting 8 15.6
2015-Jul-07 06:28 211 3 gusting 10 15.6
2015-Jul-07 06:18 218 2 gusting 10 15.6
2015-Jul-07 06:08 197 6 gusting 11 15.6
2015-Jul-07 05:58 223 6 gusting 11 15.0
2015-Jul-07 05:48 205 4 gusting 9 15.0
2015-Jul-07 05:38 211 6 gusting 13 15.6
2015-Jul-07 05:28 218 5 gusting 13 15.6
2015-Jul-07 05:18 209 4 gusting 9 15.0
2015-Jul-07 05:08 209 3 gusting 9 15.0
2015-Jul-07 04:58 219 4 gusting 13 15.0
2015-Jul-07 04:48 206 4 gusting 11 15.0
2015-Jul-07 04:38 191 0 gusting 7 15.0
2015-Jul-07 04:27 205 3 gusting 7 15.0
2015-Jul-07 04:17 192 2 gusting 9 14.4
2015-Jul-07 04:07 201 1 gusting 7 14.4
2015-Jul-07 03:57 210 4 gusting 8 14.4
2015-Jul-07 03:01 202 1 gusting 8 14.4
2015-Jul-07 02:51 124 13.9
2015-Jul-07 02:41 219 13.9
2015-Jul-07 02:31 156 13.9
2015-Jul-07 02:21 128 13.9
2015-Jul-07 02:11 216 0 gusting 6 13.9
2015-Jul-07 02:01 151 1 gusting 6 13.9
2015-Jul-07 01:51 048 0 gusting 6 13.9
2015-Jul-07 01:41 157 1 gusting 6 13.9
2015-Jul-07 01:31 148 2 gusting 7 13.9
2015-Jul-07 01:21 140 2 gusting 10 13.9
2015-Jul-07 01:11 134 3 gusting 11 13.9
2015-Jul-07 01:01 172 13.9
2015-Jul-07 00:51 128 2 gusting 12 13.9
2015-Jul-07 00:41 144 0 gusting 7 13.9
2015-Jul-07 00:31 147 1 gusting 9 13.9
2015-Jul-07 00:21 122 1 gusting 6 13.9
2015-Jul-07 00:11 125 2 gusting 10 13.9
2015-Jul-07 00:01 134 1 gusting 7 13.3
2015-Jul-06 23:51 135 2 gusting 7 13.3
2015-Jul-06 23:41 129 2 gusting 7 13.3
2015-Jul-06 23:31 153 2 gusting 8 13.3
2015-Jul-06 23:21 034 0 gusting 5 13.3
2015-Jul-06 23:11 125 1 gusting 4 13.3
2015-Jul-06 23:00 043 0 gusting 6 13.3
2015-Jul-06 22:50 126 0 gusting 4 13.3
2015-Jul-06 22:40 052 2 gusting 8 12.8
2015-Jul-06 22:30 052 2 gusting 8 12.8
2015-Jul-06 22:20 070 0 gusting 3 13.3
2015-Jul-06 22:10 345 13.3
2015-Jul-06 22:00 345 13.3
2015-Jul-06 21:50 018 13.3
2015-Jul-06 21:40 028 13.3
2015-Jul-06 21:30 036 0 gusting 4 13.3
2015-Jul-06 21:20 035 0 gusting 5 13.3
2015-Jul-06 21:10 079 0 gusting 6 13.3
2015-Jul-06 21:00 317 0 gusting 4 13.3
2015-Jul-06 20:50 052 2 gusting 6 13.3
2015-Jul-06 20:40 037 2 gusting 6 13.3
2015-Jul-06 20:30 052 3 gusting 7 13.9
2015-Jul-06 20:20 123 1 gusting 11 13.9
2015-Jul-06 20:10 119 1 gusting 7 13.9
2015-Jul-06 20:00 181 0 gusting 7 14.4
2015-Jul-06 19:50 052 3 gusting 9 14.4
2015-Jul-06 19:40 137 2 gusting 8 15.0
2015-Jul-06 19:30 116 3 gusting 10 15.0
2015-Jul-06 19:20 126 0 gusting 10 15.0
2015-Jul-06 19:10 119 2 gusting 7 15.0
2015-Jul-06 19:00 082 2 gusting 10 15.0
2015-Jul-06 18:50 068 2 gusting 9 15.0
2015-Jul-06 18:40 040 1 gusting 8 15.0
2015-Jul-06 18:30 048 4 gusting 9 15.6
2015-Jul-06 18:20 131 1 gusting 7 15.6
2015-Jul-06 18:10 030 3 gusting 10 15.6
2015-Jul-06 18:00 097 15.6
2015-Jul-06 17:50 073 0 gusting 6 15.6
2015-Jul-06 17:40 027 3 gusting 9 15.6
2015-Jul-06 17:30 042 3 gusting 8 15.6
2015-Jul-06 17:20 082 4 gusting 11 15.6
2015-Jul-06 17:10 040 6 gusting 13 15.6
2015-Jul-06 17:00 050 3 gusting 8 15.6
2015-Jul-06 16:50 070 3 gusting 10 15.6
2015-Jul-06 16:40 069 3 gusting 12 16.1
2015-Jul-06 16:30 083 3 gusting 11 16.1
2015-Jul-06 16:20 065 4 gusting 13 16.1
2015-Jul-06 16:10 053 1 gusting 11 16.1
2015-Jul-06 16:00 052 4 gusting 13 16.1
2015-Jul-06 15:50 054 4 gusting 11 16.1
2015-Jul-06 15:39 009 3 gusting 10 16.1
2015-Jul-06 15:29 088 4 gusting 8 16.1
2015-Jul-06 15:19 064 2 gusting 10 16.1
2015-Jul-06 15:09 027 3 gusting 6 16.7
2015-Jul-06 14:59 035 0 gusting 9 16.7
2015-Jul-06 14:49 050 4 gusting 12 16.7
2015-Jul-06 14:39 072 4 gusting 10 16.7
2015-Jul-06 14:29 124 2 gusting 9 16.7
2015-Jul-06 14:19 115 3 gusting 16 16.7
2015-Jul-06 14:09 156 2 gusting 9 16.7
2015-Jul-06 13:59 023 3 gusting 9 17.2
2015-Jul-06 13:49 024 1 gusting 11 17.2
2015-Jul-06 13:39 108 3 gusting 7 17.2
2015-Jul-06 13:29 071 2 gusting 9 17.2
2015-Jul-06 13:19 047 6 gusting 13 17.2
2015-Jul-06 13:09 067 3 gusting 13 17.8
2015-Jul-06 12:59 033 5 gusting 11 17.8
2015-Jul-06 12:49 102 2 gusting 11 17.8
2015-Jul-06 12:39 123 3 gusting 15 17.8
2015-Jul-06 12:29 088 2 gusting 11 17.8
2015-Jul-06 12:19 048 3 gusting 12 17.8
2015-Jul-06 12:09 085 2 gusting 7 17.8
2015-Jul-06 11:59 045 4 gusting 9 17.8
2015-Jul-06 11:49 043 4 gusting 11 18.3
2015-Jul-06 11:39 104 3 gusting 9 18.3
2015-Jul-06 11:29 034 4 gusting 13 18.3
2015-Jul-06 11:19 083 3 gusting 11 18.3
2015-Jul-06 11:09 065 2 gusting 11 18.3
2015-Jul-06 10:59 053 5 gusting 13 18.3
2015-Jul-06 10:49 036 6 gusting 13 18.9
2015-Jul-06 10:39 029 4 gusting 11 18.9
2015-Jul-06 10:29 034 4 gusting 8 18.3
2015-Jul-06 10:19 064 3 gusting 11 18.3
2015-Jul-06 10:09 033 5 gusting 9 18.3
2015-Jul-06 09:59 025 4 gusting 11 17.8
2015-Jul-06 09:49 059 3 gusting 9 17.8
2015-Jul-06 09:39 098 3 gusting 11 17.8
2015-Jul-06 09:29 043 5 gusting 12 17.8
2015-Jul-06 09:19 057 4 gusting 10 17.8
2015-Jul-06 09:09 051 3 gusting 11 17.8
2015-Jul-06 08:59 068 4 gusting 11 17.8
2015-Jul-06 08:49 043 5 gusting 10 17.8
2015-Jul-06 08:39 083 3 gusting 12 17.8
2015-Jul-06 08:29 114 4 gusting 10 17.2
2015-Jul-06 08:19 068 5 gusting 9 17.2
2015-Jul-06 08:08 094 5 gusting 11 17.8
2015-Jul-06 07:58 048 4 gusting 11 17.8
2015-Jul-06 07:48 091 4 gusting 9 17.8
2015-Jul-06 07:38 048 6 gusting 12 17.8
2015-Jul-06 07:28 058 1 gusting 7 17.2
2015-Jul-06 07:18 078 4 gusting 8 17.2
2015-Jul-06 07:08 043 2 gusting 11 17.2
2015-Jul-06 06:58 051 5 gusting 9 17.2
2015-Jul-06 06:48 066 3 gusting 7 16.7
2015-Jul-06 06:38 080 3 gusting 9 16.7
2015-Jul-06 06:28 111 4 gusting 8 16.7
2015-Jul-06 06:18 046 4 gusting 8 16.7
2015-Jul-06 06:08 102 3 gusting 8 16.7
2015-Jul-06 05:58 177 0 gusting 8 16.7
2015-Jul-06 05:48 112 3 gusting 8 16.7
2015-Jul-06 05:38 069 4 gusting 9 16.7
2015-Jul-06 05:28 056 4 gusting 8 16.1
2015-Jul-06 05:18 079 2 gusting 9 16.1
2015-Jul-06 05:08 044 3 gusting 9 15.6
2015-Jul-06 04:58 109 2 gusting 7 15.6
2015-Jul-06 04:48 026 2 gusting 8 15.6
2015-Jul-06 04:38 042 4 gusting 8 15.6
2015-Jul-06 04:28 050 4 gusting 7 15.6
2015-Jul-06 04:18 070 3 gusting 8 15.6
2015-Jul-06 04:08 035 1 gusting 8 15.6
2015-Jul-06 03:58 110 1 gusting 7 15.6
2015-Jul-06 03:48 035 3 gusting 6 15.6
2015-Jul-06 03:38 112 1 gusting 8 15.6
2015-Jul-06 03:28 053 1 gusting 6 15.0
2015-Jul-06 03:18 115 2 gusting 7 15.0
2015-Jul-06 03:08 047 2 gusting 7 14.4
2015-Jul-06 02:58 163 14.4
2015-Jul-06 02:48 076 3 gusting 9 14.4
2015-Jul-06 02:38 055 0 gusting 9 14.4
2015-Jul-06 02:28 030 4 gusting 6 14.4
2015-Jul-06 02:18 043 1 gusting 7 13.9
2015-Jul-06 02:08 026 2 gusting 6 13.9
2015-Jul-06 01:58 030 0 gusting 4 13.9
2015-Jul-06 01:48 023 14.4
2015-Jul-06 01:38 019 14.4
2015-Jul-06 01:28 036 0 gusting 4 14.4
2015-Jul-06 01:18 031 15.0
2015-Jul-06 01:08 013 15.0
2015-Jul-06 00:58 050 4 gusting 6 15.0
2015-Jul-06 00:48 038 0 gusting 1 15.0
2015-Jul-06 00:38 002 15.0
2015-Jul-06 00:28 032 15.0
2015-Jul-06 00:18 036 1 gusting 4 15.0
2015-Jul-06 00:08 040 1 gusting 3 15.0
2015-Jul-05 23:58 032 2 gusting 5 15.0
2015-Jul-05 23:47 048 2 gusting 3 15.0
2015-Jul-05 23:37 022 0 gusting 4 15.0
2015-Jul-05 23:27 043 1 gusting 4 15.0
2015-Jul-05 23:17 001 15.0
2015-Jul-05 23:07 028 15.0
2015-Jul-05 22:57 035 15.0
2015-Jul-05 22:47 035 15.6
2015-Jul-05 22:37 035 15.6
2015-Jul-05 22:27 022 15.6
2015-Jul-05 22:17 022 15.6
2015-Jul-05 22:07 015 15.6
2015-Jul-05 21:57 042 1 gusting 4 16.1
2015-Jul-05 21:47 023 1 gusting 3 16.1
2015-Jul-05 21:37 047 0 gusting 2 16.1
2015-Jul-05 21:27 033 16.1
2015-Jul-05 21:17 033 16.1
2015-Jul-05 21:07 033 16.1